Miscellaneous Local Product
Issued by NWS North Platte, NE

Home | Current Version | Previous Version | Text Only | Print | Product List | Glossary On
Versions: 1 2 3 4 5 6 7 8 9 10 11 12 13 14 15 16 17 18 19 20 21 22 23 24 25 26 27 28 29 30 31 32 33 34 35 36 37 38 39 40 41 42 43 44 45 46 47 48 49 50
000
AXUS43 KLBF 311810
MISLBF


WESTERN AND NORTH CENTRAL NEBRASKA HOURLY WEATHER ROUNDUP
NATIONAL WEATHER SERVICE NORTH PLATTE NE
1200 PM CST SAT JAN 31 2015

***STATIONS NOT REPORTING VARIABLES SUCH AS SKY/WEATHER OR
PRESSURE ARE PROVIDED BY THE NEBRASKA DEPARTMENT OF
ROADS...RAWS...AND APRS NETWORKS...AND ARE NOT UNDER
NATIONAL WEATHER SERVICE QUALITY CONTROL***

...OBSERVATIONS IN AND NEAR THE EASTERN PANHANDLE OF NEBRASKA...

CITY           SKY/WX    TMP DP  RH WIND       PRES   REMARKS
PINE RIDGE     CLOUDY    31  25  78 E9        29.97F WCI  23
CHADRON        CLOUDY    32  25  75 NE8       29.97S WCI  25
ALLIANCE       LGT SNOW  31  28  89 N8        29.91F VSB 3/4 WCI  23
SIDNEY         LGT SNOW  34  31  88 NE5       29.91S FOG     WCI  30
WHITECLAY        N/A     30  23  74 NE5         N/A  WCI  25
CRESCENT LAKE    N/A     34  32  93 CALM        N/A
LISCO            N/A     34  30  86 CALM        N/A
$$

...OBSERVATIONS IN NORTH CENTRAL NEBRASKA...

CITY           SKY/WX    TMP DP  RH WIND       PRES   REMARKS
VALENTINE      FOG       26  25  96 NE14      30.01F VSB 1/4 WCI  14
THEDFORD       LGT RAIN  34  34  99 CALM      29.96F VSB 1
AINSWORTH      CLOUDY    28  26  95 NE14      29.99F FOG     WCI  17
O`NEILL        CLOUDY    31  29  94 NE8       30.02F WCI  23
ORD            CLOUDY    34  31  88 SE5       29.98F FOG     WCI  30
BROKEN BOW     LGT SNOW  34  32  93 SE7       29.96F FOG     WCI  28
BROWNLEE         N/A     29  29  96 NE12        N/A  WCI  20
VALENTINE NWR    N/A     29  27  91 NE10        N/A  WCI  20
SPRINGVIEW       N/A     26  24  90 E9          N/A  WCI  17
BREWSTER         N/A     35  35  96 SE6         N/A  WCI  30
ROSE             N/A     32  32  99 N6          N/A  WCI  27
NEWPORT          N/A     30  30 100 NE14        N/A  WCI  20
SARGENT          N/A     35  32  89 SE3         N/A
COMSTOCK         N/A     37  36  94 S8          N/A  WCI  31
CHAMBERS         N/A     37  33  86 N3          N/A
EWING            N/A     36  33  90 S3          N/A
$$

...OBSERVATIONS IN SOUTHWEST NEBRASKA AND FAR NORTHEAST COLORADO...

CITY           SKY/WX    TMP DP  RH WIND       PRES   REMARKS
WRAY           CLOUDY    36  34  91 N5        29.89F WCI  32
IMPERIAL       FOG       33  32  96 NE6       29.90F VSB 3/4 WCI  28
OGALLALA       CLOUDY    34  33  99 E5        29.91F FOG     WCI  29
NORTH PLATTE   CLOUDY    34  31  88 E7        29.93F WCI  28
MCCOOK         FOG       36  34  92 E8        29.92F VSB 3/4 WCI  30
LEXINGTON      CLOUDY    34  33  96 SE7       29.96F FOG     WCI  28
BRADY            N/A     33  30  90 CALM        N/A
GOTHENBURG       N/A     33  31  93 SE3         N/A
CALLAWAY         N/A     34  32  93 SE3         N/A
$$

...NORTH PLATTE AREA...

CITY           SKY/WX    TMP DP  RH WIND       PRES   REMARKS
AIRPORT        CLOUDY    34  31  88 E7        29.93F WCI  28
DOWNTOWN         N/A     34  31  90 CALM        N/A
$$

...SOME WEATHER OBSERVATIONS FROM AROUND THE REGION...

CITY           SKY/WX    TMP DP  RH WIND       PRES   REMARKS
DENVER         CLOUDY    36  26  67 N7        29.88F WCI  30
LARAMIE        CLOUDY    30  25  81 N7        29.87R WCI  23
CHEYENNE       LGT SNOW  31  26  82 N7        29.88R WCI  24
SCOTTSBLUFF    SNOW      32  30  92 N3        29.92F VSB 1/2
RAPID CITY     FOG       26  26 100 SE10      30.02S VSB 1/4 WCI  16
PIERRE         CLOUDY    22  20  92 E22       30.13F FOG     WCI   6
WINNER         FRZ RAIN  26  24  92 NE15      30.07F VSB 1/4 WCI  14
SIOUX FALLS    CLOUDY    26  24  92 NE15      30.12F FOG     WCI  14
OMAHA          LGT SNOW  35  33  92 S8        30.13F FOG     WCI  29
GRAND ISLAND   LGT SNOW  33  31  92 S9        30.03F FOG     WCI  25
KANSAS CITY    LGT RAIN  38  38 100 SE8       30.19F FOG     WCI  32
WICHITA        LGT RAIN  40  37  89 S14       30.10F FOG     WCI  32
HAYS           CLOUDY    36  28  75 S12       29.98F WCI  27
LIBERAL        CLOUDY    37  34  87 S16       29.96F WCI  28
GOODLAND       CLOUDY    39  34  82 N8        29.87F WCI  33
$$



USA.gov is the U.S. government's official web portal to all federal, state and local government web resources and services.